SCP
0 0 0 -0 -0 0 0 0 0 0 0 0 0 0 0 0 0 0 0 0 0 0 0 0 0 0 0 0 0 0 0 0 0 0 0 0 0 0 0 0 0 0 0 0 0 0 0 0 0
0 0 0 -0 -0 0 0 0 0 0 0 0 0 0 0 0 0 0 0 0 0 0 0 0 0 0 0 0 0 0 0 0 0 0 0 0 0 0 0 0 0 0 0 0 0 0 0 0 0
0 0 0 -0 -0 -0 0 0 0 0 0 0 0 0 0 0 0 0 0 0 0 0 0 0 0 0 0 0 0 0 0 0 0 0 0 0 0 0 0 0 0 0 0 0 0 0 0 0 0
0 0 0 -0 -0 -0 0 0 0 0 0 0 0 0 0 0 0 0 0 0 0 0 0 0 0 0 0 0 0 0 0 0 0 0 0 0 0 0 0 0 0 0 0 0 0 0 0 0 0
0 0 0 0 0 0 0 0 0 0 0 0 0 0 0 0 0 0 0 0 0 0 0 0 0 0 0 0 0 0 0 0 0 0 0 0 0 0 0 0 0 0 0 0 0 0 0 0 0
0 0 0 0 0 0 0 0 0 0 0 0 0 0 0 0 0 0 0 0 0 0 0 0 0 0 0 0 0 0 0 0 0 0 0 0 0 0 0 0 0 0 0 0 0 0 0 0 0
0 0 0 0 0 0 0 0 0 0 0 0 0 0 0 0 0 0 0 0 0 0 0 0 0 0 0 0 0 0 0 0 0 0 0 0 0 0 0 0 0 0 0 0 0 0 0 0 0
0 0 0 0 0 0 0 0 0 0 0 0 0 0 0 0 0 0 0 0 0 0 0 0 0 0 0 0 0 0 0 0 0 0 0 0 0 0 0 0 0 0 0 0 0 0 0 0 0
0 0 0 0 0 0 0 0 0 0 0 0 0 0 0 0 0 0 0 0 0 0 0 0 0 0 0 0 0 0 0 0 0 0 0 0 0 0 0 0 0 0 0 0 0 0 0 0 0
0 0 0 0 0 0 0 0 0 0 0 0 0 0 0 0 0 0 0 0 0 0 0 0 0 0 0 0 0 0 0 0 0 0 0 0 0 0 0 0 0 0 0 0 0 0 0 0 0
0 0 0 0 0 0 0 0 0 0 0 0 0 0 0 0 0 0 0 0 0 0 0 0 0 0 0 0 0 0 0 0 0 0 0 0 0 0 0 0 0 0 0 0 0 0 0 0 0
0 0 0 0 0 0 0 0 0 0 0 0 0 0 0 0 0 0 0 0 0 0 0 0 0 0 0 0 0 0 0 0 0 0 0 0 0 0 0 0 0 0 0 0 0 0 0 0 0
0 0 0 0 0 0 0 0 0 0 0 0 0 0 0 0 0 0 0 0 0 0 0 0 0 0 0 0 0 0 0 0 0 0 0 0 0 0 0 0 0 0 0 0 0 0 0 0 0
0 0 0 0 0 0 0 0 0 0 0 0 0 0 0 0 0 0 0 0 0 0 0 0 0 0 0 0 0 0 0 0 0 0 0 0 0 0 0 0 0 0 0 0 0 0 0 0 0
0 0 0 0 0 0 0 0 0 0 0 0 0 0 0 0 0 0 0 0 0 0 0 0 0 0 0 0 0 0 0 0 0 0 0 0 0 0 0 0 0 0 0 0 0 0 0 0 0
0 0 0 0 0 0 0 0 0 0 0 0 0 0 0 0 0 0 0 0 0 0 0 0 0 0 0 0 0 0 0 0 0 0 0 0 0 0 0 0 0 0 0 0 0 0 0 0 0
0 0 0 0 0 0 0 0 0 0 0 0 0 0 0 0 0 0 0 0 0 0 0 0 0 0 0 0 0 0 0 0 0 0 0 0 0 0 0 0 0 0 0 0 0 0 0 0 0
0 0 0 0 0 0 0 0 0 0 0 0 0 0 0 0 0 0 0 0 0 0 0 0 0 0 0 0 0 0 0 0 0 0 0 0 0 0 0 0 0 0 0 0 0 0 0 0 0
0 0 0 0 0 0 0 0 0 0 0 0 0 0 0 0 0 0 0 0 0 0 0 0 0 0 0 0 0 0 0 0 0 0 0 0 0 0 0 0 0 0 0 0 0 0 0 0 0
0 0 0 0 0 0 0 0 0 0 0 0 0 0 0 0 0 0 0 0 0 0 0 0 0 0 0 0 0 0 0 0 0 0 0 0 0 0 0 0 0 0 0 0 0 0 0 0 0
0 0 0 0 0 0 0 0 0 0 0 0 0 0 0 0 0 0 0 0 0 0 0 0 0 0 0 0 0 0 0 0 0 0 0 0 0 0 0 0 0 0 0 0 0 0 0 0 0
0 0 0 0 0 0 0 0 0 0 0 0 0 0 0 0 0 0 0 0 0 0 0 0 0 0 0 0 0 0 0 0 0 0 0 0 0 0 0 0 0 0 0 0 0 0 0 0 0
0 0 0 0 0 0 0 0 0 0 0 0 0 0 0 0 0 0 0 0 0 0 0 0 0 0 0 0 0 0 0 0 0 0 0 0 0 0 0 0 0 0 0 0 0 0 0 0 0
0 0 0 0 0 0 0 0 0 0 0 0 0 0 0 0 0 0 0 0 0 0 0 0 0 0 0 0 0 0 0 0 0 0 0 0 0 0 0 0 0 0 0 0 0 0 0 0 0
0 0 0 0 0 0 0 0 0 0 0 0 0 0 0 0 0 0 0 0 0 0 0 0 0 0 0 0 0 0 0 0 0 0 0 0 0 0 0 0 0 0 0 0 0 0 0 0 0
0 0 0 0 0 0 0 0 0 0 0 0 0 0 0 0 0 0 0 0 0 0 0 0 0 0 0 0 0 0 0 0 0 0 0 0 0 0 0 0 0 0 0 0 0 0 0 0 0
0 0 0 0 0 0 0 0 0 0 0 0 0 0 0 0 0 0 0 0 0 0 0 0 0 0 0 0 0 0 0 0 0 0 0 0 0 0 0 0 0 0 0 0 0 0 0 0 0
0 0 0 0 0 0 0 0 0 0 0 0 0 0 0 0 0 0 0 0 0 0 0 0 0 0 0 0 0 0 0 0 0 0 0 0 0 0 0 0 0 0 0 0 0 0 0 0 0
0 0 0 0 0 0 0 0 0 0 0 0 0 0 0 0 0 0 0 0 0 0 0 0 0 0 0 0 0 0 0 0 0 0 0 0 0 0 0 0 0 0 0 0 0 0 0 0 0
0 0 0 0 0 0 0 0 0 0 0 0 0 0 0 0 0 0 0 0 0 0 0 0 0 0 0 0 0 0 0 0 0 0 0 0 0 0 0 0 0 0 0 0 0 0 0 0 0
Wind_Speed
5 3 2 2 3 7 8 6 5 7 6 7 7 7 8 8 7 8 5 9 11 12 13 16 20 21 21 22 23 23 24 24 25 25 26 26 26 26 26 26 26 26 26 26 25 25 25 25 25
4 1 1 1 1 7 7 5 7 7 10 9 7 6 7 8 7 7 4 9 10 11 12 15 20 20 21 22 22 23 23 24 24 25 25 26 26 26 26 26 26 26 26 25 25 25 25 25 25
4 4 4 4 6 6 8 8 11 11 8 4 5 6 6 7 6 5 6 7 8 10 12 15 20 20 21 21 22 22 23 23 24 24 25 25 26 26 26 26 25 25 25 25 25 25 25 26 25
2 3 5 8 11 7 7 12 12 11 6 4 6 8 6 5 4 6 6 7 8 11 12 15 20 20 20 21 21 22 22 23 24 24 25 25 25 25 25 26 26 25 26 25 25 25 26 25 25
1 2 6 9 8 7 7 9 9 6 6 6 6 8 8 6 8 8 6 7 9 10 11 13 18 19 20 21 21 21 22 22 23 23 24 24 25 25 24 25 25 25 26 26 26 25 25 25 25
3 2 5 8 8 7 7 6 7 6 7 7 7 9 8 8 7 6 6 6 8 10 10 11 15 17 18 20 21 20 21 21 22 23 23 23 23 24 24 24 25 25 25 25 26 26 26 25 25
4 5 7 9 9 7 6 6 7 7 8 7 7 8 9 9 7 5 5 5 7 9 10 11 12 13 15 16 19 19 19 20 20 21 22 22 22 22 22 23 24 25 25 25 25 25 26 26 25
4 7 8 7 8 8 9 6 4 5 7 6 5 6 9 12 9 5 4 4 6 8 10 11 12 12 12 11 15 16 17 19 19 19 21 21 20 20 21 21 24 25 25 25 25 25 26 25 24
1 4 6 7 7 9 12 8 6 3 8 5 2 2 9 15 10 5 3 4 6 8 9 10 12 12 11 11 11 12 13 15 16 15 19 17 13 14 15 19 22 23 24 25 24 25 25 24 20
5 4 6 3 3 10 13 8 10 9 9 7 8 9 14 13 9 5 3 5 7 9 10 9 11 11 11 9 8 8 8 10 11 11 14 11 12 11 14 17 19 21 22 22 22 24 21 18 13
8 8 7 6 7 11 11 9 9 10 8 9 14 17 16 12 8 5 4 5 7 8 9 9 10 10 10 8 7 6 6 7 9 11 13 11 10 9 10 9 11 13 16 13 16 16 13 14 13
9 9 7 8 7 8 9 10 8 9 1 7 15 18 16 13 9 5 4 4 6 8 8 9 9 9 9 8 7 7 6 6 7 9 12 10 8 9 10 8 10 10 9 12 12 11 15 16 16
8 7 7 9 9 8 8 8 6 6 4 12 16 16 14 11 9 6 4 3 5 7 8 9 8 9 9 8 6 6 7 7 8 8 9 11 9 10 11 9 9 11 10 11 12 13 15 16 16
10 11 10 7 7 6 7 5 6 7 11 15 16 15 13 11 9 7 4 3 5 6 8 8 8 9 9 8 8 7 7 7 7 7 10 11 10 10 11 11 11 11 11 11 12 15 14 13 13
9 9 7 5 4 5 6 7 9 11 15 16 16 14 12 11 9 7 4 3 4 5 6 7 8 8 9 9 9 7 7 8 7 8 10 11 11 12 12 11 11 11 12 13 12 14 13 13 14
5 5 4 6 5 5 7 6 8 15 17 17 15 14 13 12 10 7 5 3 3 4 6 7 6 8 9 9 9 7 7 8 7 8 8 11 12 13 12 11 11 12 12 11 12 12 13 13 13
4 3 2 5 7 6 8 7 8 15 17 16 15 14 13 12 11 9 6 4 2 3 5 6 7 9 9 10 8 8 7 8 7 7 8 11 13 13 12 11 11 13 11 11 12 12 13 14 14
0 2 3 3 7 8 10 10 7 14 17 16 15 15 14 13 12 10 7 5 2 2 4 6 7 9 9 8 7 6 7 7 7 7 9 13 11 14 13 10 13 13 11 11 12 15 14 13 14
1 4 5 1 4 7 12 13 9 13 17 17 16 16 15 14 11 10 8 5 3 1 4 6 8 8 8 7 8 8 8 8 7 7 11 12 12 13 12 11 12 12 11 13 15 14 16 14 13
3 5 4 1 3 6 10 14 9 11 18 17 17 16 16 14 12 11 9 7 3 1 4 6 7 8 8 7 7 7 9 7 7 7 9 11 12 13 11 13 12 12 12 14 15 15 13 13 12
3 5 5 5 1 4 9 7 5 5 10 14 15 15 15 14 14 13 11 7 4 0 4 5 7 7 8 8 6 7 6 6 6 9 8 11 12 13 13 13 13 13 13 12 15 15 16 14 13
3 1 4 5 7 3 4 6 4 4 7 12 15 16 15 14 13 12 10 7 4 1 2 4 6 7 7 8 8 10 9 9 10 9 9 12 12 12 13 13 14 14 13 14 14 14 14 15 13
3 1 3 3 4 5 2 6 1 2 4 7 12 15 14 13 13 12 10 7 4 2 1 4 6 6 7 8 9 9 9 8 8 10 11 11 11 11 12 13 14 14 13 15 16 16 16 13 13
1 3 3 3 4 4 1 5 4 2 1 1 3 8 12 12 12 11 9 7 5 3 1 3 5 6 7 8 9 9 11 11 12 12 12 11 9 10 13 14 14 14 13 15 16 16 17 14 15
2 5 4 3 3 2 2 6 6 1 3 4 4 4 8 12 13 12 11 8 5 3 2 3 5 6 7 8 8 9 10 11 12 12 11 12 10 10 13 14 14 14 15 16 16 16 15 15 15
2 5 5 6 7 6 2 6 3 1 2 4 5 5 8 12 13 12 10 8 5 3 2 3 5 6 7 8 8 8 9 8 8 11 11 11 10 11 15 16 16 16 16 16 15 14 14 13 13
1 2 3 4 4 7 6 6 6 4 7 7 7 7 10 13 13 12 10 8 5 4 2 3 5 6 7 8 8 8 9 9 10 11 11 9 10 11 15 16 16 16 16 16 16 12 14 13 12
3 3 3 3 6 7 9 7 5 5 5 7 10 11 12 13 13 12 10 8 6 4 3 3 4 5 6 7 7 7 9 9 10 10 11 12 13 13 15 16 16 17 16 17 16 14 13 13 11
4 4 3 2 3 5 8 7 2 7 4 5 7 10 12 15 14 12 10 8 6 5 4 3 3 5 6 7 7 8 8 9 10 9 11 11 12 14 14 15 16 16 16 16 15 15 15 13 12
3 4 5 4 3 5 6 9 2 4 4 6 7 7 11 14 13 12 10 8 7 6 4 4 3 5 6 6 7 8 8 9 9 10 11 12 13 13 14 15 15 16 16 16 15 15 14 13 12
Wind_Direction
112 145 241 236 111 79 83 83 101 116 87 80 71 74 75 52 28 75 72 17 3 358 355 357 8 10 13 15 15 15 15 15 14 13 12 11 9 7 6 5 3 1 360 359 358 356 355 353 351
92 164 274 333 137 117 96 106 109 93 113 116 87 84 87 81 63 79 57 21 8 6 1 4 9 12 14 16 15 15 15 15 14 13 11 10 8 7 6 5 2 0 359 357 356 355 353 351 349
96 45 41 58 63 81 109 118 117 112 123 125 101 67 67 82 80 76 49 21 14 17 10 8 12 14 15 16 15 15 14 15 14 12 11 10 8 6 5 3 1 360 358 356 355 353 351 349 347
118 87 67 66 80 60 101 129 133 135 127 106 124 106 89 53 67 81 63 31 24 23 16 13 15 16 17 17 16 15 15 15 13 11 10 8 7 4 4 2 359 359 357 355 354 351 349 347 345
90 100 86 82 84 101 114 132 152 143 131 127 133 115 105 98 99 92 69 38 27 24 19 16 17 17 18 18 18 16 15 14 12 10 8 6 4 2 2 0 357 357 355 354 352 349 347 345 343
88 71 102 111 112 126 137 158 169 146 130 135 139 124 115 130 123 97 70 46 33 25 19 19 19 19 18 18 18 15 14 13 11 8 6 4 2 360 359 358 355 355 353 351 349 347 345 343 340
74 70 90 119 132 152 147 158 182 157 147 143 144 131 132 152 130 113 80 49 37 27 23 20 18 18 16 17 16 13 13 10 8 6 3 1 358 357 356 355 352 351 350 348 346 344 342 340 337
81 103 108 135 150 153 145 137 136 159 131 124 169 157 155 154 144 132 90 50 38 31 27 20 19 16 8 9 14 9 9 7 4 4 1 357 353 353 352 352 349 348 346 345 342 341 339 337 333
261 106 131 152 164 150 156 152 133 118 133 140 153 109 126 138 147 148 126 72 45 36 31 22 18 13 5 2 3 1 3 3 359 359 358 353 349 348 346 346 344 344 343 341 339 339 336 334 329
13 93 99 83 115 147 160 163 151 159 162 156 143 127 131 145 155 150 101 54 37 30 27 23 16 10 2 356 353 355 357 355 357 355 353 349 345 342 340 336 338 339 338 337 337 335 333 332 327
45 75 102 92 102 137 148 152 164 174 185 186 167 153 152 157 160 151 105 58 40 31 27 21 15 6 0 352 348 351 348 349 350 352 350 344 341 336 338 334 334 335 335 336 333 330 332 327 324
83 73 89 112 119 140 148 153 173 197 222 162 158 154 158 166 166 155 112 64 43 33 26 17 10 3 357 350 344 349 346 345 346 346 347 345 338 335 336 330 330 331 332 330 328 324 324 321 319
84 103 87 103 114 125 143 164 175 184 137 142 146 158 168 170 164 150 121 82 45 32 23 15 0 0 354 347 341 345 346 344 341 341 343 344 336 333 332 326 327 326 327 326 324 322 320 318 316
101 109 113 117 121 142 157 163 187 171 153 152 160 170 176 176 172 165 157 95 47 31 20 7 356 359 350 347 345 345 343 340 337 338 340 340 334 329 326 323 322 322 324 323 318 317 316 314 313
122 116 124 141 148 151 175 200 211 163 166 168 176 180 183 184 183 182 156 106 51 32 14 6 353 351 347 346 346 342 341 339 336 336 335 337 334 329 325 319 319 321 321 318 316 315 314 312 310
153 168 177 157 176 166 224 254 163 163 177 182 187 189 191 191 193 183 164 132 68 27 11 3 349 344 347 346 342 340 339 339 336 335 333 338 335 332 326 320 318 321 318 315 315 315 315 312 310
188 232 236 170 191 184 227 259 147 175 188 194 196 198 198 196 197 189 176 154 96 24 7 355 351 345 345 341 336 335 335 336 335 335 336 339 335 334 327 320 318 321 317 315 314 315 314 311 310
214 273 262 244 175 206 233 249 178 188 201 206 205 205 206 207 202 190 179 165 138 29 2 353 350 348 343 338 335 334 338 338 338 338 340 338 335 334 328 320 322 322 316 316 316 314 312 308 308
305 277 287 323 143 230 252 262 238 194 206 215 214 213 214 214 199 184 182 177 175 20 358 353 349 349 346 343 340 337 338 334 335 336 335 334 333 332 328 325 323 321 317 316 314 314 312 311 312
246 276 289 188 162 255 288 278 263 206 210 217 220 220 219 213 195 189 187 187 192 349 356 349 349 346 348 344 334 328 323 322 323 327 330 332 332 330 327 325 321 318 315 313 313 313 308 307 312
256 287 316 316 280 222 293 267 168 191 222 228 232 232 227 217 205 194 191 191 189 319 1 346 343 339 344 341 333 328 323 321 332 333 329 331 328 326 324 321 318 314 314 310 311 310 307 307 306
312 340 299 295 293 306 336 308 137 176 222 226 228 227 226 217 208 194 188 185 179 115 4 333 335 335 343 342 339 338 333 333 333 330 324 325 325 324 322 320 317 313 311 308 308 306 302 300 299
340 351 276 271 273 276 227 282 298 160 246 230 225 224 221 211 201 189 182 171 157 141 326 325 327 334 343 343 340 334 331 328 325 326 325 327 325 323 322 321 317 314 311 308 306 304 299 295 292
230 212 172 194 235 258 116 291 294 167 230 250 221 220 212 200 189 179 166 160 161 167 258 314 323 335 343 341 338 336 331 330 327 329 328 329 324 323 326 324 319 316 313 310 308 304 299 293 289
270 298 295 284 269 343 104 267 268 51 245 261 272 240 203 188 181 174 170 172 177 194 250 304 321 335 342 339 337 333 330 327 327 329 327 327 324 325 326 325 322 319 316 312 308 304 299 294 290
18 333 350 323 319 319 222 261 288 135 236 255 262 244 195 186 183 178 174 175 180 195 246 298 323 333 337 335 333 328 328 326 322 324 323 322 322 322 322 323 320 320 319 316 312 307 304 296 290
141 88 4 286 282 280 273 272 273 179 238 233 228 212 198 189 185 180 174 176 182 196 235 296 317 326 332 330 328 325 329 326 322 322 321 321 321 321 321 322 322 322 322 321 319 310 309 304 295
2 130 189 262 307 300 295 281 274 238 233 217 223 218 202 190 186 181 178 179 183 195 223 266 302 318 322 322 326 321 322 323 320 319 322 323 323 323 322 324 324 324 325 324 323 320 318 314 306
161 169 191 199 274 287 303 300 212 263 270 250 239 220 200 190 187 183 179 178 183 196 220 255 288 307 315 321 321 320 322 321 319 319 323 323 322 324 324 325 326 326 327 327 326 328 325 320 316
248 219 205 251 236 240 275 277 158 239 249 253 258 224 200 190 185 180 177 179 190 205 218 245 277 298 312 314 314 316 318 319 320 322 323 323 323 324 325 326 326 327 329 330 330 333 334 332 327